Content
SEND FEEDBACK

Daily
Averages
Monthly
Summary
Canada

QUEBEC CITY AIRPORT, QUEBEC


Home > North America > Canada > Quebec
Elevation: 244 feet     Latitude: 46 48N     Longitude: 71 23W

WEATHER
 
SELECT A DAY
Number of Records: 192,879;   Date Range: 6/30/96 - 9/21/14
 
SHARE

PRINT THIS DATA

[ ← Previous Day ]
WEATHER ALMANAC - JULY 6, 2013
[ Next Day → ]
[ °C ]   °F
Weather ElementAverageHighLow
Temperature76.1 °F86 °F (5:00 pm)65 °F (5:00 am)
Dewpoint65.9 °F71.6 °F (2:00 pm) (7:00 pm)
Humidity75.4 %100 % (4:00 am)54 % (2:00 pm)
Barometer28.99 in29.99 in (1:00 am) (7:00 pm)
Wind Speed11.2 mph21.9 mph (3:00 pm)
Wind Gust29.9 mph (3:00 pm)
Weather ElementAverage
Visibility11 mi
Wind DirectionWSW (235.9 °)

Weather ElementTotal
Precipitation---
Cooling Degree Days10.5 (Base 65)
Growing Degree Days25.5 (Base 50)
Averaged from 32 records on July 6, 2013
WEATHER CONDITIONS BREAKOUT
WIND DIRECTION BREAKOUT
WEATHER BY HOUR - JULY 6, 2013
[ °C ]   °F
Local TimeTemperatureDewpointHumidityBarometerVisibilityWind DirectionWind SpeedGust SpeedPrecipitationEventsConditions
1:00 AM71.6 °F69.8 °F94 %29.99 in10.0 miSW (220°)6.9 mphPartly Cloudy
2:00 AM70.0 °F69.0 °F94 %29.96 inSouth (190°)2.3 mph
2:00 AM69.8 °F68.0 °F94 %29.98 in10.0 miSSW (210°)4.6 mphScattered Clouds
3:00 AM69.8 °F68.0 °F94 %29.97 in10.0 miSW (220°)9.2 mphPartly Cloudy
4:00 AM68.0 °F68.0 °F100 %29.96 in10.0 miWSW (250°)4.6 mphScattered Clouds
5:00 AM65.0 °F64.0 °F97 %29.96 inWest (280°)3.5 mph
5:00 AM68.0 °F66.2 °F94 %29.97 in8.0 miWSW (240°)6.9 mphScattered Clouds
6:00 AM68.0 °F66.2 °F94 %29.98 in8.0 miWSW (240°)9.2 mphPartly Cloudy
7:00 AM69.8 °F66.2 °F88 %29.99 in3.0 miWSW (240°)9.2 mphOvercast
7:31 AM69.8 °F0.0 °F4.0 miWSW (240°)15.0 mphMostly Cloudy
8:00 AM71.0 °F68.0 °F87 %29.96 inSW (230°)8.1 mph
8:00 AM71.6 °F68.0 °F88 %29.99 in3.0 miWSW (240°)11.5 mphMostly Cloudy
9:00 AM75.2 °F68.0 °F78 %29.99 in8.0 miWSW (250°)10.4 mphMostly Cloudy
10:00 AM77.0 °F68.0 °F74 %29.99 in10.0 miWSW (240°)13.8 mphMostly Cloudy
11:00 AM78.0 °F69.0 °F67 %29.95 inWSW (240°)6.9 mph
11:00 AM78.8 °F69.8 °F74 %29.97 in10.0 miSSW (210°)11.5 mphMostly Cloudy
12:00 PM78.8 °F69.8 °F74 %29.96 in10.0 miWSW (250°)12.7 mphMostly Cloudy
1:00 PM82.4 °F68.0 °F62 %29.94 in15.0 miWSW (240°)15.0 mphScattered Clouds
2:00 PM83.0 °F69.0 °F54 %29.91 inWSW (240°)10.4 mph
2:00 PM84.2 °F71.6 °F66 %29.92 in15.0 miSW (230°)18.4 mph25.3 mphPartly Cloudy
3:00 PM84.2 °F68.0 °F58 %29.90 in15.0 miSW (220°)21.9 mph29.9 mphPartly Cloudy
4:00 PM84.2 °F68.0 °F58 %29.89 in15.0 miSW (230°)20.7 mph28.8 mphPartly Cloudy
5:00 PM83.0 °F69.0 °F54 %29.86 inWSW (240°)11.5 mph
5:00 PM86.0 °F69.8 °F58 %29.88 in15.0 miWSW (240°)19.6 mph26.5 mphPartly Cloudy
6:00 PM84.2 °F68.0 °F58 %29.86 in10.0 miWSW (240°)18.4 mph26.5 mphPartly Cloudy
7:00 PM82.4 °F66.2 °F58 %29.86 in15.0 miWSW (250°)16.1 mphPartly Cloudy
8:00 PM79.0 °F68.0 °F60 %29.84 inWSW (240°)6.9 mph
8:00 PM80.6 °F68.0 °F65 %29.86 in15.0 miWSW (250°)15.0 mphPartly Cloudy
9:00 PM77.0 °F68.0 °F74 %29.88 in15.0 miWSW (240°)10.4 mphPartly Cloudy
10:00 PM75.2 °F68.0 °F78 %29.89 in15.0 miWSW (240°)11.5 mphClear
11:00 PM75.0 °F67.0 °F70 %29.87 inSW (230°)6.9 mph
11:00 PM75.2 °F66.2 °F73 %29.89 in15.0 miSW (230°)9.2 mphClear
Hourly data recorded from CYQB, located miles away from Quebec City Airport, Quebec







STORIES FROM OUR PARTNERS